Sturgeon Bay, WI

9:18 AM CDT on October 01, 2016 (GMT -0500)
Door County Cherryland

Weather History for KSUE - January, 2012

Change the Weather History Date:

Tuesday, January 31, 2012

  Actual Average Record
Temperature  
Mean Temperature 36 °F -  
Max Temperature 46 °F 27 °F 47 °F (1989)
Min Temperature 26 °F 10 °F -25 °F (1918)
Degree Days  
Heating Degree Days 29    
Moisture  
Dew Point 33 °F    
Average Humidity 85    
Maximum Humidity 100    
Minimum Humidity 65    
Precipitation  
Precipitation 0.00 in - - ()
Sea Level Pressure  
Sea Level Pressure 29.68 in    
Wind  
Wind Speed 6 mph (SSW)    
Max Wind Speed 14 mph    
Max Gust Speed 16 mph    
Visibility 7 miles    
Events      
Averages and records for this station are not official NWS values.
T = Trace of Precipitation, MM = Missing Value Source: NWS Daily Summary

Daily Weather History Graph

Daily Weather History Graph

Search for Another Location

Airport or City:

Trip Planner

Search our weather history database for the weather conditions in past years. The results will help you decide how hot, cold, wet, or windy it might be!

Date:

Astronomy

Jan. 31, 2012 Rise Set
Actual Time 7:10 AM CST 4:55 PM CST
Civil Twilight 6:39 AM CST 5:27 PM CST
Nautical Twilight 6:04 AM CST 6:02 PM CST
Astronomical Twilight 5:29 AM CST 6:36 PM CST
Moon 10:44 AM CST (1/31) 12:59 AM CST (1/31)
Length of Visible Light 10h 47m
Length of Day
9h 45m
First Quarter, 55% of the Moon is Illuminated
Jan 31
First Quarter
Feb 7
Full
Feb 14
Last Quarter
Feb 21
New
Feb 29
First Quarter

Hourly Weather History & Observations

Time (CST) Temp. Windchill Dew Point Humidity Pressure Visibility Wind Dir Wind Speed Gust Speed Precip Events Conditions
12:15 AM 30.2 °F 26.7 °F 28.4 °F 93% 29.75 in 4.0 mi SE 3.5 mph - N/A   Clear
12:35 AM 28.4 °F 24.6 °F 24.8 °F 86% 29.75 in 2.5 mi SE 3.5 mph - N/A   Clear
12:55 AM 26.6 °F 22.6 °F 24.8 °F 93% 29.75 in 1.8 mi SE 3.5 mph - N/A   Clear
1:15 AM 26.6 °F 22.6 °F 24.8 °F 93% 29.75 in 2.0 mi SE 3.5 mph - N/A   Clear
1:35 AM 26.6 °F - 26.6 °F 100% 29.75 in 1.8 mi Calm Calm - N/A   Clear
1:55 AM 28.4 °F - 26.6 °F 93% 29.75 in 1.5 mi Calm Calm - N/A   Clear
2:15 AM 28.4 °F - 28.4 °F 100% 29.75 in 0.5 mi Calm Calm - N/A   Unknown
2:35 AM 26.6 °F 22.6 °F 26.6 °F 100% 29.75 in 0.5 mi SE 3.5 mph - N/A   Unknown
2:55 AM 28.4 °F - 26.6 °F 93% 29.74 in 0.2 mi Calm Calm - N/A   Unknown
3:15 AM 26.6 °F - 26.6 °F 100% 29.74 in 0.2 mi Calm Calm - N/A   Unknown
3:35 AM 26.6 °F - 26.6 °F 100% 29.74 in 0.2 mi Calm Calm - N/A   Unknown
3:55 AM 26.6 °F 22.6 °F 24.8 °F 93% 29.73 in 0.2 mi SE 3.5 mph - N/A   Overcast
4:15 AM 30.2 °F 26.7 °F 30.2 °F 100% 29.72 in 0.2 mi ESE 3.5 mph - N/A   Overcast
4:35 AM 30.2 °F 25.4 °F 28.4 °F 93% 29.72 in 0.2 mi ESE 4.6 mph - N/A   Overcast
4:55 AM 30.2 °F 25.4 °F 28.4 °F 93% 29.72 in 0.2 mi ESE 4.6 mph - N/A   Overcast
5:15 AM 30.2 °F 25.4 °F 30.2 °F 100% 29.71 in 0.2 mi SE 4.6 mph - N/A   Overcast
5:55 AM 32.0 °F 27.5 °F 30.2 °F 93% 29.70 in 0.2 mi SE 4.6 mph - N/A   Overcast
6:15 AM 33.8 °F 27.0 °F 32.0 °F 93% 29.70 in 2.5 mi SSE 8.1 mph - N/A   Clear
6:35 AM 35.6 °F 29.2 °F 33.8 °F 93% 29.69 in 5.0 mi SSE 8.1 mph - N/A   Clear
6:55 AM 35.6 °F 29.9 °F 35.6 °F 100% 29.68 in 5.0 mi South 6.9 mph - N/A   Clear
7:15 AM 35.6 °F 29.2 °F 35.6 °F 100% 29.68 in 3.0 mi South 8.1 mph - N/A   Clear
7:35 AM 35.6 °F 30.7 °F 35.6 °F 100% 29.68 in 5.0 mi South 5.8 mph - N/A   Clear
7:55 AM 35.6 °F 29.9 °F 35.6 °F 100% 29.68 in 5.0 mi South 6.9 mph - N/A   Clear
8:15 AM 35.6 °F 30.7 °F 33.8 °F 93% 29.66 in 5.0 mi SSE 5.8 mph - N/A   Clear
8:35 AM 37.4 °F 31.4 °F 35.6 °F 93% 29.66 in 8.0 mi South 8.1 mph - N/A   Clear
8:55 AM 37.4 °F 31.4 °F 35.6 °F 93% 29.65 in 10.0 mi South 8.1 mph - N/A   Clear
9:15 AM 37.4 °F 31.4 °F 35.6 °F 93% 29.66 in 10.0 mi South 8.1 mph - N/A   Clear
9:35 AM 39.2 °F 33.0 °F 35.6 °F 87% 29.65 in 10.0 mi South 9.2 mph - N/A   Clear
9:55 AM 39.2 °F 33.0 °F 35.6 °F 87% 29.65 in 10.0 mi South 9.2 mph - N/A   Clear
10:15 AM 39.2 °F 32.5 °F 35.6 °F 87% 29.64 in 10.0 mi South 10.4 mph - N/A   Clear
10:35 AM 39.2 °F 33.0 °F 35.6 °F 87% 29.65 in 10.0 mi SSW 9.2 mph - N/A   Clear
10:55 AM 39.2 °F 33.0 °F 35.6 °F 87% 29.63 in 10.0 mi South 9.2 mph - N/A   Clear
11:15 AM 41.0 °F 34.7 °F 35.6 °F 81% 29.63 in 10.0 mi South 10.4 mph - N/A   Clear
11:35 AM 41.0 °F 35.2 °F 35.6 °F 81% 29.62 in 10.0 mi SSW 9.2 mph - N/A   Clear
11:55 AM 41.0 °F 34.7 °F 35.6 °F 81% 29.62 in 10.0 mi SSW 10.4 mph - N/A   Clear
12:15 PM 42.8 °F 37.0 °F 35.6 °F 76% 29.62 in 10.0 mi SSW 10.4 mph - N/A   Clear
12:35 PM 42.8 °F 37.5 °F 37.4 °F 81% 29.61 in 10.0 mi SSW 9.2 mph - N/A   Clear
12:55 PM 42.8 °F 38.0 °F 35.6 °F 76% 29.61 in 10.0 mi SSW 8.1 mph - N/A   Clear
1:15 PM 42.8 °F 37.5 °F 37.4 °F 81% 29.61 in 10.0 mi SSW 9.2 mph - N/A   Clear
1:35 PM 42.8 °F 37.0 °F 37.4 °F 81% 29.60 in 10.0 mi SSW 10.4 mph - N/A   Clear
1:55 PM 44.6 °F 40.2 °F 37.4 °F 76% 29.60 in 10.0 mi SW 8.1 mph - N/A   Clear
2:15 PM 46.4 °F 41.5 °F 37.4 °F 71% 29.62 in 10.0 mi SW 10.4 mph - N/A   Clear
2:35 PM 44.6 °F 39.7 °F 37.4 °F 76% 29.63 in 10.0 mi SW 9.2 mph 16.1 mph N/A   Clear
2:55 PM 44.6 °F 40.2 °F 37.4 °F 76% 29.64 in 10.0 mi SSW 8.1 mph - N/A   Clear
3:15 PM 44.6 °F 39.2 °F 37.4 °F 76% 29.65 in 10.0 mi SW 10.4 mph - N/A   Clear
3:35 PM 44.6 °F 38.4 °F 37.4 °F 76% 29.65 in 10.0 mi SW 12.7 mph - N/A   Clear
3:55 PM 44.6 °F 39.7 °F 37.4 °F 76% 29.65 in 10.0 mi SW 9.2 mph - N/A   Clear
4:15 PM 44.6 °F 40.7 °F 37.4 °F 76% 29.66 in 10.0 mi WSW 6.9 mph - N/A   Clear
4:35 PM 44.6 °F 40.2 °F 37.4 °F 76% 29.66 in 10.0 mi WSW 8.1 mph - N/A   Clear
4:55 PM 44.6 °F 39.7 °F 37.4 °F 76% 29.66 in 10.0 mi WSW 9.2 mph - N/A   Clear
5:15 PM 44.6 °F 39.7 °F 35.6 °F 71% 29.67 in 10.0 mi SW 9.2 mph - N/A   Clear
5:35 PM 42.8 °F 36.6 °F 35.6 °F 76% 29.67 in 10.0 mi WSW 11.5 mph - N/A   Clear
5:55 PM 42.8 °F 36.6 °F 35.6 °F 76% 29.68 in 10.0 mi WSW 11.5 mph - N/A   Clear
6:15 PM 42.8 °F 37.0 °F 33.8 °F 70% 29.68 in 10.0 mi WSW 10.4 mph - N/A   Clear
6:35 PM 42.8 °F 37.0 °F 33.8 °F 70% 29.68 in 10.0 mi WSW 10.4 mph - N/A   Clear
6:55 PM 42.8 °F 36.2 °F 33.8 °F 70% 29.69 in 10.0 mi WSW 12.7 mph - N/A   Clear
7:15 PM 42.8 °F 35.8 °F 32.0 °F 66% 29.69 in 10.0 mi WSW 13.8 mph - N/A   Clear
7:35 PM 42.8 °F 36.2 °F 32.0 °F 66% 29.71 in 10.0 mi WSW 12.7 mph 16.1 mph N/A   Clear
8:15 PM 41.0 °F 34.7 °F 30.2 °F 65% 29.72 in 10.0 mi West 10.4 mph - N/A   Clear
8:35 PM 39.2 °F 32.5 °F 30.2 °F 70% 29.73 in 10.0 mi West 10.4 mph - N/A   Clear
8:55 PM 39.2 °F 33.6 °F 30.2 °F 70% 29.74 in 10.0 mi West 8.1 mph - N/A   Clear
9:15 PM 39.2 °F 33.0 °F 30.2 °F 70% 29.74 in 10.0 mi West 9.2 mph - N/A   Clear
9:35 PM 39.2 °F 33.6 °F 30.2 °F 70% 29.74 in 10.0 mi West 8.1 mph - N/A   Clear
9:55 PM 37.4 °F 30.3 °F 30.2 °F 75% 29.75 in 10.0 mi West 10.4 mph - N/A   Clear
10:15 PM 37.4 °F 29.8 °F 30.2 °F 75% 29.75 in 10.0 mi West 11.5 mph - N/A   Clear
10:35 PM 37.4 °F 29.8 °F 30.2 °F 75% 29.76 in 10.0 mi West 11.5 mph - N/A   Clear
11:15 PM 37.4 °F 30.8 °F 30.2 °F 75% 29.77 in 10.0 mi West 9.2 mph - N/A   Mostly Cloudy
11:35 PM 37.4 °F 32.8 °F 30.2 °F 75% 29.79 in 10.0 mi WSW 5.8 mph - N/A   Overcast
11:55 PM 37.4 °F 31.4 °F 30.2 °F 75% 29.80 in 10.0 mi West 8.1 mph - N/A   Overcast